Location: Poughquag
(41.6090°N, 73.6820°W)
Time: 06:34:07
(UTC-05:00)

Altair - Pass Details

Date: 30 November 2023
Orbit: 1501 x 1682 km, 47.2° (Epoch: 02 March)

Event Time Altitude Azimuth Distance (km) Brightness Sun altitude
Rises 08:00:39 0° 208° (SSW) 4,832 10.3 8.4°
Reaches altitude 10° 08:04:02 10° 201° (SSW) 3,823 9.9 8.9°
Maximum altitude 08:12:50 41° 136° (SE) 2,151 9.5 10.2°
Drops below altitude 10° 08:21:20 10° 70° (ENE) 3,708 10.0 11.4°
Sets 08:24:33 0° 64° (ENE) 4,674 10.3 11.8°
